Regional Weather Roundup
Issued by NWS

Home | Current Version | Previous Version | Graphics & Text | Print | Product List | Glossary On
Versions: 1 2 3 4 5 6 7 8 9 10 11 12 13 14 15 16 17 18 19 20 21 22 23 24 25 26 27 28 29 30 31 32 33 34 35 36 37 38 39 40 41 42 43 44 45 46 47 48 49 50
000
ASUS44 KMEG 290910
RWRTN
TENNESSEE HOURLY STATE WEATHER ROUNDUP
NATIONAL WEATHER SERVICE MEMPHIS TN
400 AM CDT SUN MAY 29 2016

TNZ002-004-019-021-049-052-054-088>092-291000-
WEST TENNESSEE

CITY           SKY/WX    TMP DP  RH WIND       PRES   REMARKS
MEMPHIS INTL   PTCLDY    70  67  90 CALM      30.06R
NWS MEMPHIS      N/A     67 N/A N/A MISG        N/A
JACKSON        CLEAR     66  63  90 SW3       30.07R
DYERSBURG      PTCLDY    66  64  94 CALM      30.06R
UNION CITY     CLEAR     64  64 100 CALM      30.04S
PARIS          CLEAR     63  61  94 CALM      30.07S
LEXINGTON      CLEAR     64  64 100 CALM      30.07R
$$

TNZ008-025-027-028-033-062-065-066-291000-
NORTH MIDDLE TENNESSEE

CITY           SKY/WX    TMP DP  RH WIND       PRES   REMARKS
NASHVILLE      PTCLDY    66  63  90 CALM      30.09S
CLARKSVILLE    CLEAR     66  63  90 CALM      30.08R
SMYRNA         FOG       64  64 100 CALM      30.10S VSB 1/2
COOKEVILLE     CLEAR     61  61 100 CALM      30.11S
CROSSVILLE     MOCLDY    63  59  87 CALM      30.16F
$$

TNZ061-075-076-078-094-096-097-291000-
SOUTH MIDDLE TENNESSEE

CITY           SKY/WX    TMP DP  RH WIND       PRES   REMARKS
FAYETTEVILLE   MOCLDY    64  63  94 CALM      30.10S
TULLAHOMA      CLEAR     64  64 100 CALM      30.12S
WINCHESTER     CLEAR     64  61  88 CALM      30.11S
MCMINNVILLE    CLEAR     61  61 100 CALM      30.12S
COLUMBIA       CLEAR    N/A N/A N/A CALM      30.08S
SHELBYVILLE    CLEAR     66  66 100 E3        30.11S
$$

TNZ017-018-042-046-047-291000-
NORTHEAST TENNESSEE

CITY           SKY/WX    TMP DP  RH WIND       PRES   REMARKS
TRI CITIES     CLOUDY    64  59  83 CALM      30.15S
$$

TNZ012-013-036-069-073-074-291000-
CENTRAL EAST TENNESSEE

CITY           SKY/WX    TMP DP  RH WIND       PRES   REMARKS
KNOXVILLE      CLOUDY    71  63  75 S5        30.10F
OAK RIDGE      CLOUDY    68  64  87 CALM      30.12F
GATLINBURG     PTCLDY    63  61  94 CALM      30.11F
$$

TNZ083-085-099-291000-
SOUTHEAST TENNESSEE

CITY           SKY/WX    TMP DP  RH WIND       PRES   REMARKS
CHATTANOOGA    CLEAR     66  62  87 W3        30.11S
$$

SKY/WX REPORTED AS FAIR MEANS FEW OR NO CLOUDS BELOW
12 THOUSAND FEET.





USA.gov is the U.S. government's official web portal to all federal, state and local government web resources and services.